Hourly Data Report for October 19, 2014

All times are specified in Local Standard Time (LST). Add 1 hour to adjust for Daylight Saving Time where and when it is observed.

MONCTON INTL A
NEW BRUNSWICK

46°06'44.000" N
64°40'43.000" W
70.70 m
8103201
71705
YQM

Download Data

Hourly Data (October 2014)
Hourly Data Report for October 19, 2014
Temp Definition
°C
Dew Point Temp Definition
°C
Rel Hum Definition
%
Wind Dir Definition
10's deg

Wind Spd Definition
km/h
Visibility Definition
km
Stn Press Definition
kPa
Hmdx Definition


Wind Chill Definition


Weather Definition


TIME
00:00 Legend Double Dagger 11.6 10.7 94 17 11 19.3 98.96     LegendNANA
01:00 Legend Double Dagger 10.8 10.2 96 19 9 24.1 98.93     LegendNANA
02:00 Legend Double Dagger 12.5 11.4 93 16 14 24.1 98.88     Mainly Clear
03:00 Legend Double Dagger 12.3 11.5 95 18 11 11.3 98.88     LegendNANA
04:00 Legend Double Dagger 12.5 11.9 96 17 9 12.9 98.89     LegendNANA
05:00 Legend Double Dagger 13.4 12.1 92 17 11 24.1 98.91     Cloudy
06:00 Legend Double Dagger 13.5 12.2 92 17 10 19.3 98.94     LegendNANA
07:00 Legend Double Dagger 12.7 11.9 95 21 9 19.3 99.03     LegendNANA
08:00 Legend Double Dagger 13.0 11.9 93 23 14 24.1 99.13     Mostly Cloudy
09:00 Legend Double Dagger 13.4 11.6 89 25 12 24.1 99.21     LegendNANA
10:00 Legend Double Dagger 13.5 11.2 86 26 15 24.1 99.28     LegendNANA
11:00 Legend Double Dagger 13.2 8.5 73 25 18 24.1 99.34     Mostly Cloudy
12:00 Legend Double Dagger 13.2 7.3 67 24 19 24.1 99.37     LegendNANA
13:00 Legend Double Dagger 14.1 7.7 65 23 18 24.1 99.36     LegendNANA
14:00 Legend Double Dagger 14.0 6.9 62 26 17 24.1 99.30     Mostly Cloudy
15:00 Legend Double Dagger 13.2 5.7 60 23 22 24.1 99.41     LegendNANA
16:00 Legend Double Dagger 12.3 5.1 61 27 16 24.1 99.47     LegendNANA
17:00 Legend Double Dagger 11.4 4.7 63 27 14 24.1 99.53     Cloudy
18:00 Legend Double Dagger 10.6 4.3 65 28 14 24.1 99.58     Rain Showers
19:00 Legend Double Dagger 9.4 2.7 63 30 22 24.1 99.60     LegendNANA
20:00 Legend Double Dagger 7.5 1.8 67 32 26 24.1 99.60     Rain Showers
21:00 Legend Double Dagger 6.2 2.5 77 32 18 24.1 99.58     Rain Showers
22:00 Legend Double Dagger 5.6 1.3 74 31 19 19.3 99.57     Rain,Rain Showers
23:00 Legend Double Dagger 4.2 1.7 84 30 14 24.1 99.54     Rain

Notes on Data Quality.

Legend

  • E = Estimated
  • M = Missing
  • NA = Not Available
  • ‡ = Partner data that is not subject to review by the National Climate Archives
Date modified: